Weather History for Wright-Patt AFB, OH

Change the Weather History Date:

Friday, February 1, 2013

  Actual Average Record
Temperature  
Mean Temperature 10 °F -  
Max Temperature 15 °F 37 °F 60 °F (2012)
Min Temperature 5 °F 20 °F 0 °F (2004)
Degree Days  
Heating Degree Days 55    
Moisture  
Dew Point 1 °F    
Average Humidity 64    
Maximum Humidity 75    
Minimum Humidity 57    
Precipitation  
Precipitation 0.00 in - - ()
Sea Level Pressure  
Sea Level Pressure 30.27 in    
Wind  
Wind Speed 15 mph (WSW)    
Max Wind Speed 21 mph    
Max Gust Speed 31 mph    
Visibility 9 miles    
Events Snow    
Averages and records for this station are not official NWS values.
T = Trace of Precipitation, MM = Missing Value Source: NWS Daily Summary

Daily Weather History Graph

Daily Weather History Graph

Search for Another Location

Airport:

Trip Planner

Search our weather history database for the weather conditions in past years. The results will help you decide how hot, cold, wet, or windy it might be!

Date:

Astronomy

Feb. 01, 2013 Rise Set
Actual Time 7:44 AM EST 5:56 PM EST
Civil Twilight 7:15 AM EST 6:24 PM EST
Nautical Twilight 6:43 AM EST 6:56 PM EST
Astronomical Twilight 6:11 AM EST 7:28 PM EST
Moon No Moon Rise 10:17 AM EST (2/1)
Length of Visible Light 11h 09m
Length of Day
10h 12m
Waning Gibbous, 70% of the Moon is Illuminated
Feb 1
Waning Gibbous
Feb 3
Last Quarter
Feb 10
New
Feb 17
First Quarter
Feb 25
Full

Hourly Weather History & Observations

Time (EST) Temp. Windchill Dew Point Humidity Pressure Visibility Wind Dir Wind Speed Gust Speed Precip Events Conditions
12:04 AM 15.8 °F 2.1 °F 6.8 °F 68% 30.05 in 10.0 mi West 12.7 mph 25.3 mph N/A Snow Light Snow
12:49 AM 14.0 °F -3.9 °F 6.8 °F 73% 30.06 in 2.0 mi West 20.7 mph 28.8 mph N/A Snow Light Snow
12:55 AM 13.3 °F -4.4 °F 6.8 °F 75% 30.07 in 2.0 mi West 19.6 mph 28.8 mph 0.00 in Snow Light Snow
12:58 AM 12.2 °F -5.3 °F 5.0 °F 73% 30.07 in 3.0 mi West 18.4 mph 31.1 mph N/A Snow Light Snow
1:10 AM 12.2 °F -3.7 °F 1.4 °F 62% 30.08 in 10.0 mi West 15.0 mph 25.3 mph N/A Snow Light Snow
1:32 AM 12.2 °F -3.7 °F 1.4 °F 62% 30.09 in 10.0 mi West 15.0 mph 23.0 mph N/A   Partly Cloudy
1:47 AM 12.2 °F -4.3 °F 3.2 °F 67% 30.10 in 10.0 mi West 16.1 mph 25.3 mph N/A   Mostly Cloudy
1:56 AM 11.7 °F -5.0 °F 3.2 °F 69% 30.11 in 10.0 mi West 16.1 mph 24.2 mph 0.00 in Snow Light Snow
2:03 AM 12.2 °F -4.8 °F 1.4 °F 62% 30.11 in 10.0 mi West 17.3 mph 23.0 mph N/A Snow Light Snow
2:12 AM 10.4 °F -8.2 °F -0.4 °F 62% 30.12 in 10.0 mi West 19.6 mph 28.8 mph N/A   Scattered Clouds
2:55 AM 10.2 °F -5.0 °F -0.2 °F 63% 30.16 in 10.0 mi West 12.7 mph - 0.00 in   Clear
3:19 AM 10.4 °F -8.6 °F -0.4 °F 62% 30.17 in 10.0 mi West 20.7 mph - N/A   Mostly Cloudy
3:40 AM 8.6 °F -10.5 °F -0.4 °F 67% 30.19 in 10.0 mi West 19.6 mph 31.1 mph N/A   Scattered Clouds
3:55 AM 9.0 °F -10.5 °F -1.1 °F 64% 30.19 in 10.0 mi West 20.7 mph 25.3 mph N/A   Scattered Clouds
4:55 AM 8.1 °F -10.7 °F -0.6 °F 68% 30.21 in 10.0 mi WSW 18.4 mph - N/A   Scattered Clouds
5:55 AM 7.0 °F -11.0 °F -2.0 °F 67% 30.26 in 10.0 mi WSW 16.1 mph - N/A   Clear
6:55 AM 6.3 °F -10.7 °F -3.1 °F 65% 30.30 in 10.0 mi West 13.8 mph 21.9 mph N/A   Partly Cloudy
7:55 AM 5.9 °F -9.7 °F -3.5 °F 65% 30.33 in 10.0 mi West 11.5 mph - N/A   Partly Cloudy
8:55 AM 6.4 °F -9.8 °F -3.3 °F 64% 30.36 in 10.0 mi West 12.7 mph - N/A   Partly Cloudy
9:55 AM 8.2 °F -8.8 °F -2.0 °F 63% 30.38 in 10.0 mi WSW 15.0 mph - N/A   Partly Cloudy
10:55 AM 9.7 °F -5.0 °F -2.2 °F 59% 30.40 in 10.0 mi WSW 11.5 mph - N/A   Partly Cloudy
11:55 AM 12.0 °F -3.4 °F -0.8 °F 57% 30.41 in 10.0 mi West 13.8 mph - N/A   Partly Cloudy
12:16 PM 12.2 °F -1.8 °F -0.4 °F 57% 30.41 in 10.0 mi SW 11.5 mph - N/A   Scattered Clouds
12:55 PM 12.4 °F -1.6 °F 0.5 °F 59% 30.42 in 10.0 mi WSW 11.5 mph - N/A   Mostly Cloudy
1:55 PM 13.6 °F -0.7 °F 2.1 °F 60% 30.41 in 10.0 mi WSW 12.7 mph - N/A   Mostly Cloudy
2:55 PM 13.8 °F -1.1 °F 1.9 °F 59% 30.39 in 10.0 mi WSW 13.8 mph - N/A   Mostly Cloudy
3:55 PM 14.7 °F 0.1 °F 2.5 °F 58% 30.40 in 10.0 mi WSW 13.8 mph - N/A   Mostly Cloudy
4:55 PM 14.2 °F 0.0 °F 2.5 °F 60% 30.40 in 10.0 mi WSW 12.7 mph - N/A   Mostly Cloudy
5:55 PM 13.6 °F 2.5 °F 2.7 °F 62% 30.40 in 10.0 mi WSW 8.1 mph - N/A   Mostly Cloudy
6:55 PM 14.2 °F -0.6 °F 2.8 °F 61% 30.41 in 10.0 mi SSW 13.8 mph - N/A   Mostly Cloudy
7:55 PM 12.6 °F -0.6 °F 2.5 °F 64% 30.41 in 10.0 mi SW 10.4 mph - N/A   Scattered Clouds
8:55 PM 11.7 °F 2.3 °F 2.1 °F 66% 30.40 in 10.0 mi SW 5.8 mph - N/A   Clear
9:55 PM 10.8 °F 2.7 °F 2.3 °F 69% 30.39 in 10.0 mi South 4.6 mph - N/A   Clear
10:55 PM 9.7 °F -1.3 °F 1.9 °F 71% 30.38 in 10.0 mi South 6.9 mph - N/A   Clear
11:55 PM 11.5 °F 2.1 °F 3.0 °F 69% 30.37 in 10.0 mi South 5.8 mph - N/A   Clear